Weather History for London-Corbin, KY

Change the Weather History Date:

Friday, February 15, 2013

  Actual Average Record
Temperature  
Mean Temperature 34 °F 40 °F  
Max Temperature 40 °F 50 °F 69 °F (1989)
Min Temperature 28 °F 29 °F -4 °F (1960)
Degree Days  
Heating Degree Days 31 25  
Month to date heating degree days 401 404  
Since 1 July heating degree days 2984 2967  
Cooling Degree Days 0 0  
Month to date cooling degree days 0 0  
Year to date cooling degree days 0 0  
Moisture  
Dew Point 30 °F    
Average Humidity 82    
Maximum Humidity 100    
Minimum Humidity 64    
Precipitation  
Precipitation 0.01 in 0.13 in 1.84 in (1995)
Month to date precipitation 0.53 1.95  
Year to date precipitation 5.77 5.49  
Sea Level Pressure  
Sea Level Pressure 30.08 in    
Wind  
Wind Speed 3 mph (NNW)    
Max Wind Speed 16 mph    
Max Gust Speed 23 mph    
Visibility 10 miles    
Events Rain , Snow    
T = Trace of Precipitation, MM = Missing Value Source: NWS Daily Summary

Daily Weather History Graph

Daily Weather History Graph

Search for Another Location

Airport:

Trip Planner

Search our weather history database for the weather conditions in past years. The results will help you decide how hot, cold, wet, or windy it might be!

Date:

Astronomy

Feb. 15, 2013 Rise Set
Actual Time 7:24 AM EST 6:16 PM EST
Civil Twilight 6:58 AM EST 6:43 PM EST
Nautical Twilight 6:27 AM EST 7:13 PM EST
Astronomical Twilight 5:57 AM EST 7:43 PM EST
Moon 10:09 AM EST (2/15) No Moon Set
Length of Visible Light 11h 45m
Length of Day
10h 51m
Waxing Crescent, 30% of the Moon is Illuminated
Feb 15
Waxing Crescent
Feb 17
First Quarter
Feb 25
Full
Mar 4
Last Quarter
Mar 11
New

Hourly Weather History & Observations

Time (EST) Temp. Windchill Dew Point Humidity Pressure Visibility Wind Dir Wind Speed Gust Speed Precip Events Conditions
12:53 AM 33.1 °F - 28.9 °F 85% 30.01 in 10.0 mi Calm Calm - N/A   Clear
1:53 AM 32.0 °F - 28.0 °F 85% 30.02 in 10.0 mi Calm Calm - N/A   Clear
2:53 AM 33.1 °F - 28.9 °F 85% 30.01 in 10.0 mi Calm Calm - N/A   Mostly Cloudy
3:53 AM 30.9 °F - 28.0 °F 89% 30.01 in 10.0 mi Calm Calm - N/A   Clear
4:53 AM 30.0 °F - 27.0 °F 88% 30.02 in 10.0 mi Calm Calm - N/A   Clear
5:53 AM 28.9 °F - 26.1 °F 89% 30.04 in 10.0 mi Calm Calm - N/A   Clear
6:53 AM 28.0 °F - 26.1 °F 92% 30.04 in 10.0 mi Calm Calm - N/A   Clear
7:53 AM 30.0 °F - 28.0 °F 92% 30.07 in 10.0 mi Calm Calm - N/A   Partly Cloudy
8:53 AM 34.0 °F 31.0 °F 30.9 °F 89% 30.09 in 10.0 mi WNW 3.5 mph - N/A   Overcast
9:34 AM 35.6 °F 29.9 °F 30.2 °F 81% 30.08 in 9.0 mi North 6.9 mph - 0.00 in Snow Light Snow
9:53 AM 36.0 °F 31.1 °F 32.0 °F 86% 30.10 in 10.0 mi NNE 5.8 mph - 0.00 in Rain Light Rain
10:10 AM 37.4 °F 32.1 °F 32.0 °F 81% 30.06 in 10.0 mi NE 6.9 mph - 0.00 in   Overcast
10:53 AM 37.9 °F 33.5 °F 33.1 °F 83% 30.09 in 10.0 mi North 5.8 mph - 0.00 in   Overcast
11:34 AM 37.4 °F 33.8 °F 33.8 °F 87% 30.08 in 10.0 mi North 4.6 mph - 0.00 in Rain Light Rain
11:53 AM 37.0 °F - 33.1 °F 86% 30.10 in 10.0 mi Calm Calm - 0.00 in Rain Light Rain
12:05 PM 37.4 °F - 35.6 °F 93% 30.08 in 10.0 mi Calm Calm - 0.00 in Rain Light Rain
12:24 PM 37.4 °F - 33.8 °F 87% 30.08 in 10.0 mi Calm Calm - 0.00 in Rain Light Rain
12:53 PM 37.9 °F - 33.1 °F 83% 30.10 in 10.0 mi Calm Calm - 0.00 in   Overcast
1:53 PM 39.0 °F 36.8 °F 34.0 °F 82% 30.08 in 10.0 mi SSW 3.5 mph - N/A   Overcast
2:53 PM 39.9 °F 37.8 °F 34.0 °F 79% 30.07 in 10.0 mi SSW 3.5 mph - 0.01 in Rain Light Rain
3:09 PM 39.2 °F - 33.8 °F 81% 30.05 in 10.0 mi Calm Calm - 0.00 in   Overcast
3:28 PM 39.2 °F - 35.6 °F 87% 30.06 in 10.0 mi Calm Calm - 0.00 in Rain Light Rain
3:53 PM 37.0 °F 27.4 °F 30.9 °F 79% 30.09 in 10.0 mi NW 17.3 mph 23.0 mph 0.00 in   Overcast
4:00 PM 37.4 °F 29.3 °F 30.2 °F 75% 30.07 in 10.0 mi NNW 12.7 mph 23.0 mph 0.00 in Rain Light Rain
4:53 PM 36.0 °F 30.3 °F 30.0 °F 79% 30.10 in 10.0 mi NW 6.9 mph - 0.00 in   Overcast
5:53 PM 36.0 °F - 30.0 °F 79% 30.11 in 10.0 mi Calm Calm - 0.00 in   Overcast
6:53 PM 35.1 °F - 30.0 °F 82% 30.12 in 10.0 mi Calm Calm - N/A   Partly Cloudy
7:53 PM 32.0 °F - 30.0 °F 92% 30.13 in 9.0 mi Calm Calm - N/A   Scattered Clouds
8:53 PM 30.9 °F - 30.0 °F 96% 30.13 in 6.0 mi Calm Calm - N/A   Mostly Cloudy
9:53 PM 33.1 °F 28.7 °F 26.1 °F 75% 30.14 in 10.0 mi NW 4.6 mph - N/A   Overcast
10:53 PM 33.1 °F 27.7 °F 23.0 °F 66% 30.14 in 10.0 mi NNW 5.8 mph - N/A   Overcast
11:53 PM 30.9 °F 24.3 °F 21.0 °F 67% 30.12 in 10.0 mi NW 6.9 mph - N/A   Scattered Clouds